Regional Weather Roundup
Issued by NWS Wakefield, VA

Home | Current Version | Previous Version | Graphics & Text | Print | Product List | Glossary On
Versions: 1 2 3 4 5 6 7 8 9 10 11 12 13 14 15 16 17 18 19 20 21 22 23 24 25 26
000
ASUS41 KAKQ 251815
RWRAKQ

REGIONAL WEATHER ROUNDUP
NATIONAL WEATHER SERVICE WAKEFIELD VA
200 PM EDT THU MAY 25 2017

Note: "fair" indicates few or no clouds below 12,000 feet with no
significant weather and/or obstructions to visibility. * = Denotes
station may not report precipitation (e.g., rain,snow,etc.),
thunder or fog.

VAZ042-051-052>054-056-251900-
NORTHERN VIRGINIA

CITY           SKY/WX    TMP DP  RH WIND       PRES   REMARKS
WASH NATIONAL  PTSUNNY   69  62  78 S10       29.51S
DULLES         PTSUNNY   69  59  70 E5        29.50S
FORT BELVOIR   PTSUNNY   69  60  73 S9        29.51S
QUANTICO       PTSUNNY   71  63  75 S7        29.51F
FREDERICKSBRG* MOSUNNY   73  61  68 W6        29.49F
STAFFORD*      PTSUNNY   70  63  77 SW6       29.54F
WARRENTON      MOSUNNY   73  58  59 S7        29.49F
CULPEPER*      MOSUNNY   72  61  69 SE5       29.50S
MANASSAS*      CLOUDY    71  60  68 S5        29.50F
LEESBURG*      PTSUNNY   70  61  73 CALM      29.51F
WINCHESTER     PTSUNNY   66  55  68 S3        29.48F
FRONT ROYAL*   PTCLDY    70  59  68 CALM      29.47F
LURAY*         MOCLDY    70  59  68 NW3       29.47F
$$

VAZ048-049-060>072-079>083-251900-
CENTRAL AND SOUTH CENTRAL VIRGINIA

CITY           SKY/WX    TMP DP  RH WIND       PRES   REMARKS
RICHMOND       PTSUNNY   76  60  57 S14       29.48F
CHESTERFIELD*  NOT AVBL
PETERSBURG*    PTSUNNY   75  58  54 CALM      29.49F
HANOVER        PTSUNNY   76  56  49 SW7G18    29.49F
TAPPAHANNOCK*  MOSUNNY   77  58  50 S9        29.50F
QUINTON*       CLOUDY    74  60  61 S6        29.48F
CHARLOTTSVILLE LGT RAIN  63  58  83 CALM      29.48F
GORDONSVILLE*  MOCLDY    71  60  69 S8        29.47F
ORANGE*        MOSUNNY   72  59  64 CALM      29.47F
LOUISA*        PTSUNNY   75  64  69 CALM      29.47F
BUMPASS*       MOCLDY    71  64  77 SW5       29.49F
FARMVILLE*     LGT RAIN  64  57  78 SW6       29.50S
CREWE*         MOCLDY    74  51  45 SW7G18    29.49F
FORT PICKETT*  MOCLDY    71  59  64 SW6       29.50F
CHASE CITY*    MOCLDY    63  60  87 W5        29.52R
CLARKSVILLE*   CLOUDY    64  57  77 W7        29.53R
SOUTH HILL*    PTSUNNY   75  59  58 S18       29.56F
LAWRENCEVILLE* FAIR      75  57  54 SW12G18   29.50F
EMPORIA*       MOSUNNY   75  61  60 S8G16     29.52F
$$

VAZ088>098-251900-
SOUTHEAST VIRGINIA

CITY           SKY/WX    TMP DP  RH WIND       PRES   REMARKS
NORFOLK        PTSUNNY   77  64  64 SE9       29.51F
VIRGINIA BEACH PTSUNNY   72  64  76 S6        29.51F
NORFOLK NAVAL  PTSUNNY   76  59  55 SW8       29.52F
WEST POINT*    MOSUNNY   76  59  54 SW8       29.51F
SALUDA*        MOCLDY    75  62  62 SW7       29.50F
NEWPORT NEWS   PTSUNNY   77  60  55 W17G23    29.50F
LANGLEY AFB    PTSUNNY   77  63  61 W12       29.49F
FORT EUSTIS    CLOUDY    78  62  58 SW8       29.48F
WILLIAMSBURG*  CLOUDY    79  63  57 SW7       29.51F
HR EXEC AP*    MOCLDY    79  59  50 W10G16    29.49F
FRANKLIN*      PTSUNNY   77  58  52 SW9G18    29.51F
US460-WAKEFLD  MOSUNNY   76  60  57 S9        29.50F
$$

VAZ020-022-025-037-045-251900-
WEST CENTRAL AND SOUTHWEST VIRGINIA

CITY           SKY/WX    TMP DP  RH WIND       PRES   REMARKS
STAUNTON*      PTSUNNY   69  56  62 S7        29.49F
WAYNESBORO*    PTCLDY    70  57  63 SW10      29.49F
HOT SPRINGS VA CLOUDY    57  43  58 W14G22    29.58R
LYNCHBURG      MOSUNNY   70  52  52 VRB7G18   29.53R
DANVILLE       CLOUDY    69  58  67 SW8       29.54S
SOUTH BOSTON*  CLOUDY    66  60  79 CALM      29.53S
MARTINSVILLE   PTSUNNY   71  52  50 SW8       29.56S
ROANOKE        CLOUDY    67  50  54 W13       29.55R
BLACKSBURG     CLOUDY    61  48  62 W8G17     29.60S
DUBLIN*        CLOUDY    64  46  51 W20       29.60R
MARION*        CLOUDY    54  51  89 W15G21    29.65R FOG
HILLSVILLE*    CLOUDY    59  42  52 W7G25     29.60R
RICHLANDS*     LGT RAIN  52  23  32 SW9G16    29.63S
WISE*          LGT RAIN  52  52 100 SW14G23   29.63S
ABINGDON*      LGT RAIN  55  54  96 W10G20    29.65S
$$

MDZ021>025-VAZ099-100-251900-
SOUTHERN MARYLAND AND THE DELMARVA PENINSULA

CITY           SKY/WX    TMP DP  RH WIND       PRES   REMARKS
PATUXENT RIVER PTSUNNY   76  65  68 SW6       29.49F
BAY BRIDGE APT CLOUDY    70  63  78 NW7       29.50F
LEONARDTOWN    MOSUNNY   73  59  60 SW9G17    29.51F
DOVER          PTSUNNY   78  77  95 SW17      29.47S
GEORGETOWN     PTSUNNY   79  58  48 SW13      29.50F
EASTON         MOSUNNY   75  61  60 W13G18    29.54S
CAMBRIDGE      SUNNY     75  63  64 S8G17     29.50F
SALISBURY      CLOUDY    77  61  57 SW14      29.51S
OCEAN CITY     SUNNY     68  65  90 SW8G20    29.53S
WALLOPS ISLAND PTSUNNY   74  66  76 S14       29.53S
ACCOMACK*      PTSUNNY   76  62  60 W8        29.52F
$$

NCZ012>017-030>032-251900-
NORTH CENTRAL AND EASTERN NORTH CAROLINA

CITY           SKY/WX    TMP DP  RH WIND       PRES   REMARKS
ROANOKE RAPIDS FAIR      77  59  53 SW15G22   29.52F
RALEIGH        PTSUNNY   73  57  57 SW20G25   29.55F THUNDER
ELIZABETH CITY MOSUNNY   80  62  54 SW17G28   29.53F
AHOSKIE*         N/A     75  61  61 CALM      29.52F
EDENTON*       MOSUNNY   79  61  53 SW10      29.55S
CURRITUCK*     PTSUNNY   76  64  65 SW10G17   29.54F
KILL DEVIL HLS MOSUNNY   80  57  45 SW13G21   29.53F
MANTEO         MOSUNNY   80  61  53 SW17      29.55F
CAPE HATTERAS  NOT AVBL
TARBORO*       NOT AVBL
GOLDSBORO      PTSUNNY   77  55  45 SW17G28   29.55S
WASHINGTON     PTSUNNY   77  57  50 SW18G29   29.56S
GREENVILLE     MOSUNNY   79  57  47 SW18G28   29.59F
NEW BERN       SUNNY     79  53  40 SW14G28   29.60R
WILMINGTON     CLOUDY    73  61  65 SW20G29   29.61F
$$

VAZ048-251900-
ELSEWHERE

CITY           SKY/WX    TMP DP  RH WIND       PRES   REMARKS
HARRISBURG PA  CLOUDY    63  60  90 CALM      29.51S FOG
BALTIMORE      PTSUNNY   70  62  76 W8        29.49S
ANNAPOLIS      PTSUNNY   73  64  73 VRB6      29.50S
ANDREWS AFB    CLOUDY    70  59  68 SW12      29.51S
PHILADELPHIA   CLOUDY    64  61  90 NE9       29.52S
HENDERSON NC   SUNNY     71  54  53 SW18G26   29.53
GREENSBORO     PTSUNNY   70  56  61 W12       29.56S
ROCKY MOUNT    MOSUNNY   76  56  49 SW18G26   29.55S
$$

VAZ100-251900-
MARINE

STATION/POSITION TIME  TEMP    WIND        PRES    WAVE   SWELL
                       AIR SEA DIR/SP/G            HT/PER HT/PER
                 (UTC) (F)     (DEG/KT/KT) (MB)    (FT/S) (FT/S)
CAPE MAY NJ      1748   68 61  160/  9/ 13  998.9R
LEWES DE         1748   78 61  240/ 10/ 15  998.5F
15NM E FENWICK I 1750   61 57  170/ 14/ 14 1000.1F   4/ 5   2/ 7
WACHAPREAGUE VA  1748   75 70  210/ 10/ 13  999.2F
THOMAS POINT MD  1800   68 64  190/  7/  8   N/A
GOOSES REEF MD   1800   70 63  280/  4/  6  999.7    1/ 2
COVE POINT MD    1748   72     180/  2/  4  999.4F
SOLOMONS ISLAND  1742   72 66  200/  7/ 10   N/A
BISHOPS HEAD MD  1748   70 67  200/  8/ 10  999.5F
PINEY POINT MD   1748          350/  4/  4   N/A
POTOMAC MD       1800   72 67  250/  6/  6  997.8    1/ 2
CAMBRIDGE MD     1742   77 67                N/A
LEWISETTA VA     1748   74 66  240/ 11/ 13  998.6F
RAPPAHANNOCK LGT 1748          160/  5/  6 1000.1F
STINGRAY PT      1750   73     260/  8/ 12  999.4F
YORK RVR RNG VA  1748   74     240/ 11/ 13  998.4F
YORKTOWN VA      1748   75 69  240/  6/ 10  998.5F
JAMESTOWN VA     1800   74 72  240/ 10/ 14   N/A     1
DOMINION TERM VA 1748   74     230/ 11/ 14  999.2F
KIPTOPEKE VA     1748      66  140/  4/  4   N/A
CHES BAY BRIDGE  1748   73 67  280/  1/  2  999.3F
CAPE HENRY VA    1748   71     120/  8/ 10   N/A
WILLOUBY STN VA  1748   73     270/  9/ 11  998.9F
S CRANEY ISL VA  1748   76     240/ 10/ 15  999.0F
CAPE HENRY BUOY  1742      63                N/A     3/ 8
1ST LANDING BUOY 1800   72 67               999.5    1
CAPE CHARLES BUO 1751      63                N/A     3/ 7
64NM E OF VA BCH 1750   68 65  190/ 16/ 16 1001.6S   6/ 8   5/ 8
DUCK PIER NC     1748   78 63  220/ 16/ 22  999.7F
44100 DUCK FRF   1735      64                N/A     4/ 7
44056 DUCK FRF   1700      65                N/A     3/ 7
OREGON INLET NC  1742   76 71  200/ 23/ 26 1001.1R
HATTERAS NC      1748   76 73  210/ 18/ 26 1002.3F
DIAMOND SHLS NC  1750   76 78  230/ 25/ 31 1002.8F   9/ 8   3/12
CAPE LOOKOUT NC  1700   75     220/ 20/ 27 1002.7F
$$




USA.gov is the U.S. government's official web portal to all federal, state and local government web resources and services.